Location: Unspecified
(54.1780°N, 0.0000°E)
Time: 20:53:05
(UTC+00:00)

Tiros 1 - Pass Details

Date: 20 June 2019
Orbit: 630 x 664 km, 48.4° (Epoch: 22 July)

Event Time Altitude Azimuth Distance (km) Brightness Sun altitude
Rises 22:59:35 0° 189° (S) 2,940 - -11.2°
Reaches altitude 10° 23:04:07 10° 148° (SSE) 2,025 - -11.4°
Maximum altitude 23:04:51 10° 139° (SE) 2,003 - -11.4°
Drops below altitude 10° 23:05:35 10° 130° (SE) 2,024 - -11.4°
Exits shadow 23:05:38 10° 130° (SE) 2,027 9.2 -11.4°
Sets 23:10:06 0° 90° (E) 2,929 10.4 -11.6°
